• In Hungary
  • List of Countries
  • For 7 days
  • Water Temperature
  • Satellite Maps
  • Weather Map
  • News
  • Weather Widgets
  • user-avatar
    Login

    Hourly Weather Burgankent

    Today, 19 September, Wednesday

    Time Temperature Precipitation Wind Pressure Humidity
    00:00 +14°C° 0 mm 2 mps 711 mmHg 79%
    01:00 +14°C° 0 mm 2 mps 711 mmHg 78%
    02:00 +14°C° 0 mm 2 mps 711 mmHg 77%
    03:00 +14°C° 0 mm 2 mps 711 mmHg 76%
    04:00 +14°C° 0 mm 2 mps 711 mmHg 75%
    05:00 +14°C° 0 mm 2 mps 711 mmHg 74%
    06:00 +14°C° 0 mm 2 mps 711 mmHg 73%
    07:00 +16°C° 0 mm 2 mps 711 mmHg 65%
    08:00 +18°C° 0 mm 2 mps 711 mmHg 57%
    09:00 +20°C° 0 mm 2 mps 712 mmHg 48%
    10:00 +21°C° 0 mm 3 mps 712 mmHg 46%
    11:00 +22°C° 0 mm 3 mps 712 mmHg 44%
    12:00 +24°C° 0 mm 3 mps 712 mmHg 42%
    13:00 +22°C° 0 mm 3 mps 712 mmHg 43%
    14:00 +22°C° 0 mm 3 mps 712 mmHg 45%
    15:00 +21°C° 0 mm 3 mps 711 mmHg 46%
    16:00 +20°C° 0 mm 2 mps 711 mmHg 51%
    17:00 +18°C° 0 mm 2 mps 711 mmHg 56%
    18:00 +16°C° 0 mm 2 mps 711 mmHg 61%
    19:00 +16°C° 0 mm 2 mps 711 mmHg 61%
    20:00 +16°C° 0 mm 2 mps 711 mmHg 62%
    21:00 +15°C° 0 mm 2 mps 711 mmHg 63%
    22:00 +15°C° 0 mm 2 mps 711 mmHg 62%
    23:00 +15°C° 0 mm 2 mps 711 mmHg 62%

    Tomorrow, 20 September, Thursday

    Time Temperature Precipitation Wind Pressure Humidity
    00:00 +15°C° 0 mm 2 mps 711 mmHg 61%
    01:00 +15°C° 0 mm 2 mps 711 mmHg 60%
    02:00 +15°C° 0 mm 2 mps 711 mmHg 60%
    03:00 +15°C° 0 mm 2 mps 712 mmHg 59%
    04:00 +15°C° 0 mm 2 mps 712 mmHg 58%
    05:00 +15°C° 0 mm 2 mps 712 mmHg 58%
    06:00 +15°C° 0 mm 2 mps 712 mmHg 57%
    07:00 +17°C° 0 mm 2 mps 712 mmHg 52%
    08:00 +19°C° 0 mm 3 mps 713 mmHg 48%
    09:00 +21°C° 0 mm 3 mps 713 mmHg 43%
    10:00 +22°C° 0 mm 3 mps 713 mmHg 43%
    11:00 +22°C° 0 mm 3 mps 713 mmHg 43%
    12:00 +24°C° 0 mm 3 mps 713 mmHg 42%
    13:00 +24°C° 0 mm 3 mps 713 mmHg 44%
    14:00 +22°C° 0 mm 3 mps 713 mmHg 46%
    15:00 +22°C° 0 mm 3 mps 712 mmHg 48%
    16:00 +20°C° 0 mm 2 mps 712 mmHg 56%
    17:00 +18°C° 0 mm 2 mps 712 mmHg 63%
    18:00 +18°C° 0 mm 1 mps 711 mmHg 71%
    19:00 +16°C° 0 mm 2 mps 712 mmHg 71%
    20:00 +16°C° 0 mm 2 mps 712 mmHg 71%
    21:00 +16°C° 0 mm 2 mps 712 mmHg 71%
    22:00 +16°C° 0 mm 2 mps 711 mmHg 71%
    23:00 +16°C° 0 mm 2 mps 711 mmHg 70%

    Day after tomorrow, 21 September, Friday

    Time Temperature Precipitation Wind Pressure Humidity
    00:00 +16°C° 0 mm 2 mps 711 mmHg 69%
    01:00 +16°C° 0 mm 2 mps 711 mmHg 69%
    02:00 +16°C° 0 mm 2 mps 711 mmHg 68%
    03:00 +16°C° 0 mm 2 mps 710 mmHg 67%
    04:00 +16°C° 0 mm 2 mps 710 mmHg 65%
    05:00 +16°C° 0 mm 2 mps 710 mmHg 64%
    06:00 +16°C° 0 mm 2 mps 710 mmHg 63%
    07:00 +18°C° 0 mm 2 mps 711 mmHg 56%
    08:00 +21°C° 0 mm 2 mps 711 mmHg 49%
    09:00 +24°C° 0 mm 2 mps 711 mmHg 42%
    10:00 +25°C° 0 mm 2 mps 711 mmHg 40%
    11:00 +26°C° 0 mm 3 mps 711 mmHg 39%
    12:00 +27°C° 0 mm 3 mps 711 mmHg 38%
    13:00 +26°C° 0 mm 3 mps 711 mmHg 40%
    14:00 +26°C° 0 mm 3 mps 711 mmHg 43%
    15:00 +25°C° 0 mm 3 mps 710 mmHg 45%
    16:00 +23°C° 0 mm 2 mps 710 mmHg 54%
    17:00 +20°C° 0 mm 2 mps 710 mmHg 63%
    18:00 +19°C° 0 mm 1 mps 710 mmHg 71%
    19:00 +19°C° 0 mm 1 mps 711 mmHg 71%
    20:00 +19°C° 0 mm 1 mps 711 mmHg 71%
    21:00 +18°C° 0 mm 1 mps 711 mmHg 71%
    22:00 +18°C° 0 mm 1 mps 711 mmHg 70%
    23:00 +18°C° 0 mm 1 mps 711 mmHg 70%

    22 September, Saturday

    Time Temperature Precipitation Wind Pressure Humidity
    00:00 +17°C° 0 mm 2 mps 711 mmHg 69%
    01:00 +18°C° 0 mm 1 mps 711 mmHg 68%
    02:00 +18°C° 0 mm 1 mps 711 mmHg 68%
    03:00 +18°C° 0 mm 1 mps 711 mmHg 67%
    04:00 +18°C° 0 mm 1 mps 711 mmHg 66%
    05:00 +18°C° 0 mm 1 mps 711 mmHg 65%
    06:00 +18°C° 0 mm 1 mps 711 mmHg 65%
    07:00 +20°C° 0 mm 1 mps 711 mmHg 58%
    08:00 +21°C° 0 mm 2 mps 712 mmHg 52%
    09:00 +24°C° 0 mm 2 mps 712 mmHg 45%
    10:00 +25°C° 0 mm 2 mps 712 mmHg 44%
    11:00 +26°C° 0 mm 3 mps 712 mmHg 43%
    12:00 +26°C° 0 mm 3 mps 712 mmHg 41%
    13:00 +26°C° 0 mm 3 mps 711 mmHg 43%
    14:00 +26°C° 0 mm 3 mps 711 mmHg 46%
    15:00 +25°C° 0 mm 3 mps 711 mmHg 48%
    16:00 +22°C° 0.1 mm 3 mps 711 mmHg 56%
    17:00 +21°C° 0.1 mm 2 mps 711 mmHg 65%
    18:00 +19°C° 0.1 mm 2 mps 711 mmHg 74%
    19:00 +19°C° 0 mm 2 mps 711 mmHg 75%
    20:00 +18°C° 0 mm 2 mps 711 mmHg 75%
    21:00 +18°C° 0 mm 2 mps 711 mmHg 76%
    22:00 +18°C° 0 mm 2 mps 711 mmHg 77%
    23:00 +18°C° 0 mm 2 mps 711 mmHg 77%

    23 September, Sunday

    Time Temperature Precipitation Wind Pressure Humidity
    00:00 +18°C° 0 mm 2 mps 711 mmHg 77%
    01:00 +17°C° 0 mm 2 mps 711 mmHg 78%
    02:00 +17°C° 0 mm 2 mps 710 mmHg 78%
    03:00 +17°C° 0 mm 2 mps 710 mmHg 78%
    04:00 +16°C° 0 mm 2 mps 710 mmHg 77%
    05:00 +16°C° 0 mm 2 mps 710 mmHg 76%
    06:00 +16°C° 0 mm 2 mps 710 mmHg 75%
    07:00 +19°C° 0 mm 3 mps 710 mmHg 67%
    08:00 +21°C° 0 mm 3 mps 710 mmHg 59%
    09:00 +24°C° 0 mm 3 mps 711 mmHg 51%
    10:00 +25°C° 0 mm 4 mps 710 mmHg 48%
    11:00 +26°C° 0 mm 4 mps 710 mmHg 46%
    12:00 +27°C° 0 mm 4 mps 710 mmHg 44%
    13:00 +26°C° 0 mm 4 mps 709 mmHg 44%
    14:00 +26°C° 0 mm 5 mps 709 mmHg 44%
    15:00 +26°C° 0 mm 5 mps 709 mmHg 45%
    16:00 +23°C° 0 mm 4 mps 708 mmHg 52%
    17:00 +21°C° 0 mm 3 mps 708 mmHg 58%
    18:00 +19°C° 0 mm 2 mps 708 mmHg 65%
    19:00 +19°C° 0 mm 3 mps 708 mmHg 64%
    20:00 +19°C° 0 mm 3 mps 708 mmHg 62%
    21:00 +19°C° 0 mm 3 mps 708 mmHg 60%
    22:00 +19°C° 0 mm 3 mps 708 mmHg 58%
    23:00 +19°C° 0 mm 3 mps 708 mmHg 56%

    24 September, Monday

    Time Temperature Precipitation Wind Pressure Humidity
    00:00 +19°C° 0 mm 3 mps 708 mmHg 54%
    01:00 +19°C° 0 mm 3 mps 707 mmHg 53%
    02:00 +18°C° 0 mm 2 mps 707 mmHg 52%
    03:00 +18°C° 0 mm 2 mps 707 mmHg 51%
    04:00 +18°C° 0 mm 2 mps 707 mmHg 50%
    05:00 +19°C° 0 mm 2 mps 708 mmHg 49%
    06:00 +19°C° 0 mm 2 mps 708 mmHg 49%
    07:00 +20°C° 0 mm 2 mps 708 mmHg 48%
    08:00 +23°C° 0 mm 2 mps 709 mmHg 47%
    09:00 +25°C° 0 mm 2 mps 709 mmHg 47%
    10:00 +25°C° 0.1 mm 3 mps 709 mmHg 47%
    11:00 +26°C° 0.1 mm 3 mps 709 mmHg 46%
    12:00 +26°C° 0.1 mm 4 mps 709 mmHg 46%
    13:00 +26°C° 0.2 mm 3 mps 709 mmHg 49%
    14:00 +25°C° 0.2 mm 3 mps 709 mmHg 52%
    15:00 +25°C° 0.2 mm 3 mps 709 mmHg 54%
    16:00 +23°C° 0.2 mm 2 mps 709 mmHg 61%
    17:00 +22°C° 0.2 mm 1 mps 709 mmHg 68%
    18:00 +20°C° 0.2 mm 1 mps 709 mmHg 75%
    19:00 +20°C° 0 mm 1 mps 709 mmHg 74%
    20:00 +20°C° 0 mm 1 mps 709 mmHg 72%
    21:00 +19°C° 0 mm 2 mps 709 mmHg 71%
    22:00 +19°C° 0 mm 2 mps 709 mmHg 69%
    23:00 +18°C° 0 mm 2 mps 709 mmHg 67%
    Show more